Regional Weather Roundup
Issued by NWS

Home | Current Version | Previous Version | Text Only | Print | Product List | Glossary Off
Versions: 1 2 3 4 5 6 7 8 9 10 11 12 13 14 15 16 17 18 19 20 21 22 23 24 25 26 27 28 29 30 31 32 33 34 35 36 37 38 39 40 41 42 43 44 45 46 47 48 49 50

000
ASUS43 KDTX 031601
RWRMI
MICHIGAN HOURLY REGIONAL WEATHER ROUNDUP
NATIONAL WEATHER SERVICE DETROIT/PONTIAC MI
1200 PM EDT SUN MAY 03 2015

NOTE: "FAIR" INDICATES FEW OR NO CLOUDS BELOW 12,000 FEET WITH NO
SIGNIFICANT WEATHER AND/OR OBSTRUCTION TO VISIBILITY.

MIZ047>049-052>055-059>063-066>070-074>076-081>083-031700-
SOUTHEAST LOWER MICHIGAN

CITY           SKY/WX    TMP DP  RH WIND       PRES   REMARKS
ADRIAN         SUNNY     74  42  31 SW15G21   30.07S
ALMA           SUNNY     76  41  28 SW9G18    29.99F
ANN ARBOR      SUNNY     75  43  31 SW12G20   30.05F
BAD AXE        SUNNY     75  39  27 W9        30.01S
CARO           SUNNY     76  45  32 CALM      30.00S
DETROIT CITY   SUNNY     74  42  31 SW15      30.05F
DETROIT        SUNNY     77  43  29 SW18      30.06F
FLINT          SUNNY     76  41  28 SW17      30.03S
HILLSDALE      SUNNY     74  40  28 S13       30.06S
HOWELL         SUNNY     74  38  27 SW15      30.03S

CITY           SKY/WX    TMP DP  RH WIND       PRES   REMARKS
JACKSON        SUNNY     73  42  32 S16       30.04S
LAMBERTVILLE   SUNNY     73  43  33 W6        30.07F
LANSING        SUNNY     74  42  31 SW13G21   30.03S
LAPEER         FAIR      75  38  26 SW10G17   30.03S
MASON          SUNNY     73  40  29 SW8G16    30.03F
MT. CLEMENS    MOSUNNY   77  44  30 SW15      30.02F
PONTIAC        SUNNY     75  42  30 SW10      30.03F
PORT HOPE        N/A     75  40  28 W13G18    29.98S
PORT HURON     SUNNY     75  43  31 SW9       30.04S
TRI CITIES     SUNNY     76  42  29 SW15      30.00F
MIDLAND        FAIR      77  41  27 SW12G21   29.99S
TROY           SUNNY     76  39  25 SW8G16    30.06S
SAGINAW HB     SUNNY     77  39  25 SW12      30.00F
$$
MIZ043>046-050>051-056>058-064>065-071>073-077>080-031700-
SOUTHWEST LOWER MICHIGAN

CITY           SKY/WX    TMP DP  RH WIND       PRES   REMARKS
BATTLE CREEK   SUNNY     74  43  32 SW16      30.04S
BENTON HARBOR  PTSUNNY   73  46  38 S12G18    30.00S
BIG RAPIDS     CLOUDY    73  38  27 SW16G23   29.97S
COLDWATER      SUNNY     72  43  34 SW7G18    30.05S
FREMONT        CLOUDY    71  38  29 SW12      29.98S
HOLLAND        PTSUNNY   72  46  39 SW16      30.00F
GRAND RAPIDS   PTSUNNY   75  44  33 SW17G26   30.00F
IONIA          FAIR      76  40  27 SW17      30.00S
KALAMAZOO      MOSUNNY   76  43  30 SW14G28   30.03S
LUDINGTON      CLOUDY    71  42  35 S15G21    29.95S
MARSHALL       SUNNY     73  42  33 MISG      30.03F
MOUNT PLEASANT SUNNY     76  39  27 SW13G21   29.98F
MUSKEGON       PTSUNNY   67  42  40 S13       29.99F
SOUTH HAVEN    PTSUNNY   75  39  27 SW10G16   30.00F
$$
MIZ016>042-031700-
NORTHERN LOWER MICHIGAN

CITY           SKY/WX    TMP DP  RH WIND       PRES   REMARKS
ALPENA         SUNNY     78  39  24 SW15G26   29.93S
BEAVER ISLAND  SUNNY     68  47  46 SW15G25   29.90R
BELLAIRE       SUNNY     74  47  38 S9        29.92S
CADILLAC       CLOUDY    71  45  39 SW15      29.97R
CHARLEVOIX     SUNNY     72  50  45 SW12      29.94R
FRANKFORT      MOSUNNY   72  43  35 S13G20    29.93S
GAYLORD        SUNNY     73  46  38 SW18G30   29.93F
GRAYLING       MOSUNNY   74  40  28 SW9G20    29.95S
HARBOR SPRINGS SUNNY     68  47  47 SW8       29.91S
HOUGHTON LAKE  PTSUNNY   73  41  31 SW12      29.97S
MANISTEE       MOSUNNY   72  45  37 SW9G17    29.95S
OSCODA         SUNNY     78  41  26 SW10G21   29.95S
PELLSTON       SUNNY     73  47  39 SW14G22   29.90S
ROGERS CITY    SUNNY     77  44  30 SW17G25   29.91F
TRAVERSE CITY  PTSUNNY   73  47  39 SW12      29.93R
$$
MIZ007>008-015-031700-
EASTERN UPPER MICHIGAN

CITY           SKY/WX    TMP DP  RH WIND       PRES   REMARKS
KINROSS        SUNNY     72  48  43 SW13G20   29.88S
MACKINAC ISLAN SUNNY     66  48  51 SW12G21   29.90R
NEWBERRY       MOSUNNY   67  47  48 S16G22    29.86S
S. S. MARIE    SUNNY     72  48  42 SW13G23   29.86F
MUNISING         N/A     64  46  52 E7        29.81R
$$
MIZ004>006-011>014-085-031700-
CENTRAL UPPER MICHIGAN

CITY           SKY/WX    TMP DP  RH WIND       PRES   REMARKS
MANISTIQUE     SUNNY     50  40  69 S10       29.88R
ESCANABA       SUNNY     63  46  55 S13       29.84S
MENOMINEE      PTSUNNY   73  50  43 SW14      29.84F
SAWYER-GWINN   MOSUNNY   73  50  43 SW12      29.82S
$$
MIZ001>003-009>011-084-031700-
WESTERN UPPER MICHIGAN

CITY           SKY/WX    TMP DP  RH WIND       PRES   REMARKS
IRON MOUNTAIN  MOSUNNY   75  51  43 SW14G22   29.80F
HOUGHTON       CLOUDY    63  54  72 SW9       29.75R
COPPER HARBOR    N/A     65  55  70 SW9       29.72S
IRONWOOD       MOSUNNY   72  52  49 S10       29.72F
$$

ABBREVIATIONS USED IN REMARKS
   TC - TEMPERATURE IN CELSIUS
  WCI - WIND CHILL INDEX
   HX - HEAT INDEX
  VSB - VISIBILITY




USA.gov is the U.S. government's official web portal to all federal, state and local government web resources and services.